星链-5662 (STARLINK-5662 )

导读 | 星芒AI

STARLINK-5662 是 SpaceX 星链计划中的一颗低轨通信卫星,属于第56批发射的星链卫星之一。该卫星部署在约550公里高度的近地轨道,旨在为全球用户提供高速互联网服务。它采用先进的推进系统和激光通信技术,具备高带宽和低延迟特性,支持偏远地区的网络接入。作为星链星座的重要组成部分,STARLINK-5662 有助于提升全球互联网覆盖范围和连接质量。

基本信息
目录编号:
55344
目录名称:
STARLINK-5662
国际标识:
2023-013P
轨道中心:
EARTH
卫星名称:
星链-5662
卫星全名:
星链-5662 (STARLINK-5662 )
卫星状态:
已陨落 最后检测时间 2024-11-28
发射日期:
2023-01-26 UTC
国别 :
美国 (US)
星等 :
--
轨道信息
数据来源 国际轨道数据
星历时间: 2024-11-28T21:41:55+0800
轨道信息已过期346天
半长轴: 6569.032km
偏心率: 0.0010479
轨道倾角: 42.979°
近地点辐角 167.936°
升交点赤经 282.305°
平近点角 332.258°
近地点: 184.013km
远地点: 197.781km
周期: 88.310分钟
每日圈数: 16.306126
详细信息
固有亮度:
5
最大亮度:
2.5
卫星平台:
Starlink v1.5
覆盖范围:
全球
运营商:
太空探索技术公司
运营商所在国:
美国
制造商(研发单位):
太空探索技术公司
制造商所在国:
美国
使用方式:
暂无
卫星简介
星链(Starlink)计划是由太空探索技术公司(SpaceX)提出的一个巨型低轨卫星互联网星座项目,计划在2019年至2024年间在太空搭建由约1.2万颗卫星组成的“星链”网络,其中1584颗将部署在地球上空550千米处的近地轨道,并从2020年开始工作。该卫星仍在工作。